Location: North Bay
(46.3091°N, 79.4608°W)
Time: 23:39:40
(UTC-04:00)

ISS - Visible Passes

Search period start: 25 September 2017 00:00
Search period end: 05 October 2017 00:00
Orbit: 401 x 407 km, 51.6° (Epoch: 26 September)

Date Brightness Start Highest point End Pass type
(mag) Time Alt. Az. Time Alt. Az. Time Alt. Az.
25 Sep -1.8 19:55:07 10° SSE 19:56:43 13° SE 19:57:35 12° ESE visible
25 Sep -1.3 21:29:27 10° WSW 21:30:17 17° SW 21:30:17 17° SW visible
26 Sep -3.6 20:37:17 10° SW 20:40:25 46° SE 20:40:35 45° SE visible
27 Sep -2.7 19:45:23 10° SSW 19:48:11 27° SE 19:50:42 12° E visible
27 Sep -2.2 21:21:16 10° WSW 21:23:22 35° W 21:23:22 35° W visible
28 Sep -3.9 20:28:48 10° WSW 20:32:05 88° NNW 20:33:20 35° ENE visible
28 Sep -0.3 22:05:49 10° WNW 22:05:59 11° WNW 22:05:59 11° WNW visible
29 Sep -3.6 19:36:32 10° SW 19:39:44 56° SSE 19:42:57 10° ENE visible
29 Sep -2.4 21:13:12 10° W 21:15:48 36° NW 21:15:48 36° NW visible
30 Sep -3.2 20:20:36 10° W 20:23:48 51° NNW 20:25:32 24° NE visible
30 Sep -0.4 21:57:45 10° WNW 21:58:11 13° WNW 21:58:11 13° WNW visible
01 Oct -3.7 19:28:05 10° WSW 19:31:20 76° NNW 19:34:38 10° ENE visible
01 Oct -2.2 21:05:09 10° WNW 21:07:50 31° NNW 21:07:50 31° NNW visible
02 Oct -2.6 20:12:29 10° W 20:15:34 36° NNW 20:17:26 19° NE visible
02 Oct -0.5 21:49:31 10° WNW 21:50:04 14° NW 21:50:04 14° NW visible
03 Oct -3.0 19:19:50 10° W 19:23:00 46° NNW 19:26:12 10° ENE visible
03 Oct -2.3 20:56:58 10° WNW 20:59:37 30° N 20:59:37 30° N visible
04 Oct -2.4 20:04:21 10° WNW 20:07:19 31° N 20:09:09 18° NE visible
04 Oct -0.6 21:41:07 10° WNW 21:41:47 15° NW 21:41:47 15° NW visible
